Wind_Speed
30 30 30 30 30 30 31 32 33 31 31 30 32 32 32 32 32 33 33 34 35 35 35 36 36 37 38 38 39 40 41 42 43 44 45 46 46 47 48 49 49 49 49 50
29 29 30 30 29 30 31 31 32 31 30 30 31 32 32 31 31 32 33 34 35 34 34 34 35 36 36 37 38 39 39 40 41 42 43 44 44 45 47 48 48 49 50 50
29 29 30 30 29 29 29 30 31 31 31 30 31 32 32 31 31 32 33 34 34 34 34 34 34 35 35 36 36 36 36 37 38 39 40 41 42 43 45 46 47 48 49 49
30 29 30 29 29 29 28 28 29 30 31 31 32 32 32 31 31 31 32 32 33 33 33 33 33 33 34 35 35 36 37 37 38 38 39 40 41 43 44 45 46 46 47 49
30 30 30 29 29 29 29 28 29 30 30 30 31 32 32 32 31 31 31 30 30 31 32 32 32 33 33 34 35 36 37 38 38 38 39 40 41 42 43 44 45 46 47 48
29 30 31 29 29 29 29 29 29 30 30 31 32 32 32 32 31 30 30 30 30 31 32 32 33 32 32 33 34 35 36 37 39 39 39 39 40 42 43 44 45 46 46 47
29 30 30 29 29 29 29 30 30 30 30 31 32 32 32 32 32 31 30 31 31 32 32 33 33 33 33 33 34 35 36 37 38 39 40 40 41 42 43 44 45 46 46 47
30 30 30 30 29 29 29 29 30 29 30 30 30 31 31 31 31 31 31 32 33 33 33 33 33 33 34 34 34 35 36 37 38 39 40 41 41 42 43 43 44 45 46 46
30 30 30 30 30 30 30 30 30 30 30 30 29 29 29 30 30 30 31 32 33 33 33 33 33 33 33 34 34 35 36 36 37 38 39 40 41 42 43 43 43 44 44 44
31 30 30 31 31 31 31 31 31 31 31 30 29 29 29 29 29 30 31 32 33 33 33 32 33 33 34 34 33 34 34 35 35 36 38 38 39 40 40 40 41 42 42 42
32 32 32 31 32 32 33 32 32 32 31 30 30 29 29 29 29 30 30 31 31 31 31 31 32 33 33 33 33 32 33 34 34 35 35 36 37 37 37 38 38 39 40 40
33 32 33 32 33 33 33 33 33 32 32 31 31 30 30 29 29 30 30 29 29 30 30 30 31 31 31 31 32 31 32 32 32 32 32 33 33 34 34 36 37 37 38 39
33 32 33 33 33 33 33 33 33 33 32 31 30 30 30 29 29 29 29 29 29 29 29 30 30 30 30 30 30 30 30 30 31 30 30 31 32 32 33 33 34 35 35 36
33 33 33 33 33 33 33 33 33 33 33 32 31 31 30 30 30 30 30 30 29 29 29 29 29 29 30 30 30 31 31 31 31 31 31 31 31 31 32 32 33 34 34 35
33 33 33 33 33 33 33 34 34 34 33 33 32 32 32 31 31 30 30 30 30 29 29 28 28 28 29 30 30 30 31 31 31 30 30 31 31 31 32 32 32 33 33 33
33 33 33 34 34 34 34 34 34 34 34 33 33 33 33 32 31 31 30 30 30 29 29 29 28 28 28 29 29 29 30 30 30 30 30 30 30 30 30 30 30 31 31 32
33 33 33 33 33 34 34 34 34 34 33 33 33 33 32 32 31 31 30 30 30 29 29 29 29 29 29 29 29 30 30 30 30 30 30 30 30 30 30 30 30 30 30 31
33 33 33 33 32 33 33 33 33 33 33 32 32 33 33 32 32 31 31 31 31 31 30 29 29 29 29 29 29 29 29 29 29 29 29 29 30 30 30 30 30 30 30 31
33 32 32 32 33 33 33 33 33 32 31 31 31 32 32 32 31 31 31 31 31 31 31 30 30 29 29 29 28 28 28 29 29 29 29 30 30 30 31 31 31 31 31 31
32 32 32 32 33 33 33 32 31 30 30 29 29 30 30 30 30 31 31 31 30 29 29 29 30 29 29 28 28 28 28 28 29 30 30 30 31 31 31 31 31 31 31 31
32 32 32 32 32 32 31 30 30 30 29 29 29 29 29 29 29 30 30 30 30 29 29 29 29 28 28 28 28 28 28 28 28 29 29 30 30 30 30 30 31 31 31 31
32 31 31 31 31 30 29 29 28 28 28 28 29 29 29 28 28 28 28 28 28 28 27 27 27 27 27 27 27 27 27 27 27 27 28 28 28 28 28 29 29 29 29 29
31 31 30 30 30 29 28 28 28 28 28 29 29 29 29 28 28 28 28 28 27 27 26 26 26 26 26 26 26 26 25 26 26 27 27 27 27 27 27 27 28 28 27 27
31 30 30 30 29 28 28 28 29 29 29 30 30 29 28 27 27 27 27 27 26 26 25 25 25 25 24 24 24 24 24 25 25 26 26 25 25 25 26 26 26 26 26 26
31 31 30 30 29 28 28 28 29 29 30 29 29 28 27 27 27 26 26 25 24 24 24 24 23 23 23 23 23 23 23 24 24 24 24 24 24 24 24 24 24 25 25 25
30 30 29 28 27 27 27 28 28 28 28 28 28 27 26 26 26 26 25 24 23 23 23 23 23 23 23 23 23 23 23 23 23 23 23 23 23 23 23 23 23 24 24 24
29 29 28 27 26 26 26 27 27 27 27 27 27 26 26 26 25 25 24 23 23 23 23 23 23 23 23 23 23 23 23 23 23 22 22 22 23 23 23 23 23 24 24 24
Wind_Direction
294 292 292 291 293 292 291 290 288 287 287 287 285 285 284 281 278 277 274 271 270 270 268 267 265 264 262 261 261 260 257 254 254 254 253 252 252 252 253 253 252 252 252 252
294 292 291 291 291 292 290 291 291 288 286 285 285 284 284 282 279 276 275 274 273 272 269 268 267 266 264 262 261 259 258 255 254 254 253 252 253 253 253 253 253 253 253 253
297 295 292 293 294 293 290 290 291 290 289 286 286 285 284 283 281 279 276 276 274 272 270 270 268 267 265 263 261 259 257 254 253 253 253 252 253 254 254 254 254 254 254 253
297 297 296 296 296 294 292 291 291 290 289 287 286 285 285 284 283 279 277 277 275 274 273 271 269 267 266 264 262 260 259 257 256 255 254 254 255 255 256 256 257 257 256 256
298 298 299 298 297 295 293 291 291 291 290 288 287 285 284 283 284 282 279 278 275 275 274 273 270 268 265 264 262 261 261 258 257 256 255 255 256 257 257 257 258 259 259 259
298 300 302 301 298 296 294 291 292 292 291 289 288 287 285 284 283 282 279 278 275 275 275 274 272 269 268 265 264 263 262 260 258 258 258 257 258 258 259 259 260 261 261 261
298 300 301 302 300 298 295 294 294 295 293 291 290 290 287 284 282 280 279 278 277 276 276 274 272 271 270 269 267 266 264 261 260 260 259 260 260 261 261 261 262 262 262 262
297 298 301 301 300 298 297 294 294 295 294 293 292 292 289 285 282 279 278 278 278 278 276 275 273 272 272 271 269 267 266 263 261 261 261 262 262 262 263 263 263 263 263 262
296 296 298 299 296 296 296 294 293 294 294 293 292 291 289 285 283 281 281 280 280 279 277 275 272 272 273 273 272 270 268 266 265 263 263 263 263 264 264 263 263 262 262 261
294 295 295 295 293 293 293 293 293 293 293 292 291 290 289 287 285 283 283 283 282 281 278 274 273 273 274 275 274 274 271 270 269 266 264 264 264 264 264 264 262 262 261 260
294 294 292 292 292 292 291 292 292 291 291 290 290 289 288 288 287 286 286 286 285 283 280 277 275 274 275 275 275 275 274 272 271 269 267 265 265 265 264 263 263 261 259 259
293 292 292 291 290 290 289 289 290 291 290 290 290 288 288 288 289 288 287 287 286 285 282 279 277 276 276 275 275 274 274 273 273 271 270 268 267 266 265 265 263 261 261 261
292 291 291 291 289 289 289 289 290 291 292 290 289 287 287 288 289 289 289 288 287 286 285 283 279 277 276 276 275 274 274 273 273 273 272 270 269 268 266 265 264 264 264 263
291 292 292 291 291 290 290 289 290 290 291 290 289 287 288 289 290 289 289 289 288 288 287 284 280 278 277 277 275 273 272 272 272 273 273 272 270 269 269 268 267 265 265 265
292 294 294 292 292 292 292 292 290 289 289 289 289 288 287 288 289 289 288 288 287 287 287 285 283 281 279 278 277 275 273 272 271 272 273 272 272 272 272 271 270 268 266 266
292 293 292 292 293 294 294 293 292 290 289 289 289 289 287 287 287 288 288 286 286 286 286 284 284 283 281 279 278 276 274 273 272 272 273 274 274 274 274 272 272 271 270 269
293 294 294 294 294 295 295 294 293 291 290 290 289 289 286 286 287 287 288 287 286 285 285 285 284 284 283 281 279 276 274 273 272 273 273 273 274 274 273 273 272 272 272 271
294 294 294 294 294 295 295 295 294 292 291 290 289 289 286 284 285 287 287 287 286 285 284 285 285 285 284 283 281 278 275 273 273 273 273 273 273 273 272 271 271 272 272 271
295 295 296 295 296 296 296 296 296 294 293 293 292 291 287 284 284 286 288 288 287 285 284 284 285 285 284 283 281 279 277 274 272 272 273 273 273 273 272 271 271 271 271 271
295 295 296 297 297 298 298 297 295 294 294 295 295 294 290 286 285 287 289 289 288 286 285 285 285 285 284 282 280 279 279 278 276 274 274 274 274 274 273 272 272 271 271 270
296 296 297 297 298 299 299 298 296 295 295 296 297 296 293 290 289 289 289 289 288 287 286 285 285 284 284 283 281 280 280 280 278 276 275 275 274 274 273 273 272 271 271 270
297 297 298 298 298 298 297 297 296 296 297 298 299 298 295 293 292 291 291 290 289 288 287 286 285 284 284 283 283 281 280 280 279 277 276 276 276 276 275 274 273 273 272 271
297 298 298 298 297 296 296 296 296 297 297 298 300 298 297 294 293 292 291 290 289 288 287 287 286 286 285 285 283 282 281 281 281 280 279 278 278 277 276 275 275 273 273 272
296 297 297 297 297 295 295 296 296 297 297 298 299 298 297 295 293 292 292 291 289 288 287 287 286 287 287 286 285 285 284 284 283 282 281 280 278 277 276 275 274 273 272 272
297 297 296 295 294 293 294 296 297 297 297 298 298 297 296 295 295 294 293 292 290 288 287 287 286 286 286 286 287 287 287 286 285 284 283 282 280 278 277 276 276 275 273 272
298 297 296 295 293 293 294 296 297 297 298 298 298 297 296 295 295 294 294 293 291 290 289 289 288 287 287 287 287 288 288 288 287 285 283 282 280 279 278 277 277 276 275 274
297 297 295 295 294 294 296 297 298 298 298 299 299 298 296 295 295 294 293 292 292 291 290 290 289 288 288 288 288 288 287 287 286 285 284 282 280 279 279 279 279 279 278 276
Height
5572 5570 5568 5566 5565 5563 5560 5558 5556 5556 5554 5554 5551 5549 5547 5546 5545 5544 5543 5542 5541 5541 5540 5540 5540 5541 5541 5541 5542 5543 5544 5546 5548 5550 5552 5555 5558 5560 5563 5566 5569 5571 5574 5577
5565 5563 5560 5558 5557 5555 5553 5551 5548 5547 5547 5546 5542 5540 5538 5537 5536 5535 5534 5533 5532 5531 5531 5530 5530 5530 5530 5530 5531 5532 5533 5535 5536 5538 5540 5543 5545 5547 5550 5553 5555 5558 5561 5563
5557 5555 5552 5551 5551 5548 5546 5544 5541 5539 5539 5536 5534 5532 5530 5528 5527 5526 5525 5523 5522 5522 5521 5520 5520 5520 5520 5520 5520 5521 5522 5523 5525 5527 5529 5531 5533 5535 5538 5540 5542 5544 5547 5549
5548 5547 5544 5546 5542 5540 5537 5536 5533 5531 5529 5527 5526 5524 5521 5520 5518 5517 5515 5514 5513 5512 5511 5511 5510 5509 5509 5509 5510 5510 5511 5513 5514 5516 5518 5519 5521 5523 5525 5527 5529 5531 5533 5535
5541 5538 5536 5537 5535 5532 5529 5528 5526 5523 5521 5519 5517 5515 5514 5511 5510 5508 5506 5505 5504 5503 5502 5501 5500 5499 5499 5499 5499 5500 5501 5502 5503 5505 5507 5508 5510 5512 5513 5515 5517 5518 5520 5522
5534 5530 5529 5530 5527 5523 5522 5520 5519 5515 5513 5511 5508 5507 5507 5503 5501 5500 5498 5496 5495 5494 5493 5492 5491 5490 5489 5489 5489 5489 5490 5491 5493 5494 5496 5497 5499 5500 5501 5503 5504 5505 5507 5508
5527 5523 5522 5522 5519 5516 5515 5514 5510 5507 5505 5502 5500 5498 5497 5495 5493 5491 5489 5488 5486 5485 5484 5483 5481 5480 5480 5479 5479 5479 5479 5480 5482 5483 5484 5485 5487 5488 5488 5490 5491 5492 5493 5495
5520 5517 5518 5514 5511 5509 5507 5504 5501 5498 5496 5494 5492 5489 5487 5486 5484 5482 5480 5479 5477 5476 5475 5473 5472 5471 5470 5470 5469 5469 5469 5469 5470 5471 5472 5473 5474 5475 5475 5476 5477 5478 5479 5480
5514 5514 5510 5506 5503 5501 5498 5496 5493 5490 5488 5486 5484 5481 5479 5477 5475 5473 5471 5469 5468 5466 5465 5464 5462 5461 5460 5460 5459 5458 5458 5459 5459 5459 5460 5460 5461 5462 5462 5463 5463 5464 5465 5466
5506 5505 5503 5499 5496 5493 5490 5487 5485 5482 5480 5477 5475 5473 5471 5469 5467 5464 5462 5460 5458 5457 5455 5454 5453 5452 5451 5450 5449 5448 5448 5448 5448 5448 5448 5448 5448 5449 5449 5449 5450 5450 5451 5452
5498 5497 5494 5492 5488 5485 5482 5479 5476 5474 5471 5469 5467 5465 5463 5461 5458 5456 5454 5452 5449 5447 5446 5444 5443 5442 5441 5440 5439 5438 5438 5437 5437 5437 5437 5437 5436 5436 5437 5437 5437 5438 5439 5440
5490 5488 5485 5483 5480 5476 5473 5471 5468 5465 5463 5460 5458 5456 5454 5452 5450 5448 5445 5443 5441 5439 5436 5435 5433 5432 5431 5430 5430 5429 5428 5428 5427 5427 5426 5426 5426 5426 5425 5426 5425 5426 5426 5427
5481 5478 5475 5473 5470 5467 5464 5462 5459 5456 5454 5451 5449 5447 5445 5444 5441 5439 5437 5434 5432 5430 5428 5426 5424 5423 5422 5421 5420 5419 5419 5418 5418 5417 5417 5416 5416 5415 5415 5415 5414 5415 5415 5415
5471 5469 5466 5464 5461 5458 5455 5452 5450 5447 5445 5442 5440 5438 5436 5435 5432 5430 5428 5425 5423 5421 5418 5417 5415 5413 5412 5411 5410 5409 5409 5408 5408 5408 5407 5407 5406 5406 5405 5405 5405 5404 5404 5403
5462 5460 5457 5454 5452 5449 5446 5443 5440 5438 5435 5433 5431 5429 5427 5425 5423 5421 5419 5416 5414 5412 5410 5408 5406 5404 5403 5402 5400 5399 5399 5398 5398 5398 5397 5397 5396 5396 5395 5395 5395 5394 5394 5393
5453 5450 5447 5445 5442 5440 5437 5434 5431 5428 5426 5423 5421 5419 5417 5416 5414 5412 5409 5407 5405 5403 5401 5399 5397 5395 5394 5392 5391 5390 5389 5388 5388 5388 5387 5387 5386 5386 5385 5385 5384 5384 5384 5383
5444 5441 5439 5436 5433 5430 5427 5424 5421 5418 5416 5414 5412 5409 5407 5406 5404 5402 5400 5398 5396 5394 5392 5390 5388 5386 5384 5383 5381 5380 5379 5379 5378 5377 5377 5377 5377 5376 5376 5375 5375 5374 5374 5373
5434 5432 5429 5426 5423 5420 5417 5414 5411 5408 5406 5404 5402 5399 5397 5396 5394 5393 5391 5388 5386 5384 5382 5381 5379 5377 5375 5373 5371 5370 5369 5369 5368 5367 5367 5367 5366 5366 5366 5365 5365 5364 5363 5363
5425 5422 5420 5417 5414 5411 5408 5404 5401 5399 5396 5394 5392 5390 5387 5386 5384 5383 5381 5379 5377 5375 5373 5371 5369 5367 5365 5363 5362 5360 5359 5359 5358 5358 5357 5357 5357 5356 5355 5355 5355 5354 5353 5352
5416 5413 5410 5407 5404 5401 5398 5395 5392 5390 5387 5385 5383 5380 5378 5376 5375 5373 5371 5369 5367 5365 5364 5362 5360 5358 5356 5354 5353 5352 5350 5349 5348 5348 5347 5347 5346 5346 5345 5345 5344 5343 5343 5342
5406 5404 5401 5398 5395 5392 5389 5386 5384 5381 5379 5376 5374 5371 5369 5367 5365 5363 5361 5360 5358 5356 5354 5352 5350 5349 5347 5345 5344 5343 5341 5340 5339 5338 5337 5337 5336 5335 5335 5334 5334 5333 5332 5332
5397 5394 5391 5389 5386 5383 5380 5378 5375 5373 5371 5368 5366 5363 5360 5358 5356 5354 5352 5350 5348 5346 5345 5343 5341 5340 5338 5336 5335 5333 5332 5331 5330 5329 5328 5327 5326 5326 5325 5324 5324 5323 5322 5322
5388 5385 5383 5380 5377 5375 5372 5370 5367 5365 5363 5360 5358 5355 5352 5350 5347 5346 5344 5341 5339 5337 5335 5334 5332 5331 5329 5327 5326 5325 5324 5322 5321 5320 5319 5318 5317 5316 5316 5315 5314 5314 5313 5313
5379 5376 5374 5371 5369 5366 5364 5362 5359 5357 5354 5352 5349 5346 5344 5342 5339 5337 5334 5332 5330 5328 5327 5325 5324 5322 5321 5319 5318 5317 5315 5314 5313 5311 5310 5309 5308 5307 5307 5306 5305 5305 5304 5304
5370 5367 5365 5362 5360 5358 5356 5354 5351 5349 5346 5343 5341 5338 5335 5333 5331 5328 5326 5324 5322 5320 5319 5317 5316 5314 5313 5311 5310 5309 5307 5306 5305 5303 5302 5301 5300 5299 5298 5297 5297 5296 5296 5295
5361 5359 5356 5354 5352 5350 5348 5345 5343 5340 5338 5335 5332 5330 5327 5325 5323 5320 5318 5316 5315 5313 5311 5310 5308 5307 5305 5304 5303 5301 5300 5298 5297 5296 5294 5293 5292 5291 5290 5290 5289 5288 5287 5287
5353 5350 5348 5346 5344 5342 5340 5337 5335 5332 5329 5327 5324 5322 5319 5317 5315 5313 5311 5309 5307 5306 5304 5302 5301 5299 5298 5297 5295 5294 5292 5291 5289 5288 5287 5286 5285 5284 5283 5282 5281 5280 5279 5279